TimeAST,TemperatureF,Dew PointF,Humidity,Sea Level PressureIn,VisibilityMPH,Wind Direction,Wind SpeedMPH,Gust SpeedMPH,PrecipitationIn,Events,Conditions,WindDirDegrees,DateUTC
12:53 AM,73.9,71.1,91,30.00,10.0,ESE,4.6,-,0.02,,Mostly Cloudy,110,2013-04-18 04:53:00
1:53 AM,75.0,70.0,84,29.98,10.0,East,4.6,-,N/A,,Mostly Cloudy,100,2013-04-18 05:53:00
2:53 AM,75.0,70.0,84,29.97,10.0,East,5.8,-,N/A,,Clear,90,2013-04-18 06:53:00
3:53 AM,75.0,69.1,82,29.97,10.0,East,10.4,-,0.00,,Mostly Cloudy,100,2013-04-18 07:53:00
4:53 AM,73.9,71.1,91,29.98,10.0,ESE,5.8,-,0.03,,Mostly Cloudy,110,2013-04-18 08:53:00
5:53 AM,73.0,70.0,90,29.99,10.0,East,9.2,-,0.01,Rain,Light Rain,90,2013-04-18 09:53:00
8:53 AM,81.0,69.1,67,30.03,10.0,ESE,12.7,24.2,N/A,,Clear,110,2013-04-18 12:53:00
9:53 AM,82.9,68.0,60,30.04,10.0,East,16.1,27.6,N/A,,Clear,100,2013-04-18 13:53:00
10:53 AM,84.0,66.9,56,30.03,10.0,East,18.4,24.2,N/A,,Clear,90,2013-04-18 14:53:00
11:53 AM,86.0,64.9,49,30.03,10.0,ESE,19.6,26.5,N/A,,Clear,120,2013-04-18 15:53:00
12:53 PM,86.0,61.0,43,30.01,10.0,East,24.2,29.9,N/A,,Clear,100,2013-04-18 16:53:00
1:53 PM,86.0,64.0,48,30.00,10.0,East,21.9,31.1,N/A,,Clear,90,2013-04-18 17:53:00
2:53 PM,86.0,64.9,49,29.99,10.0,ESE,16.1,26.5,N/A,,Clear,120,2013-04-18 18:53:00
3:53 PM,84.0,68.0,58,29.98,10.0,East,20.7,26.5,N/A,,Clear,90,2013-04-18 19:53:00
4:53 PM,81.0,69.1,67,29.98,10.0,East,19.6,27.6,N/A,,Partly Cloudy,90,2013-04-18 20:53:00
5:53 PM,81.0,69.1,67,29.99,10.0,East,13.8,-,N/A,,Mostly Cloudy,80,2013-04-18 21:53:00
6:53 PM,79.0,68.0,69,30.00,10.0,East,15.0,23.0,N/A,,Partly Cloudy,90,2013-04-18 22:53:00
9:53 PM,78.1,69.1,74,30.04,10.0,East,12.7,-,N/A,,Mostly Cloudy,80,2013-04-19 01:53:00
10:53 PM,77.0,70.0,79,30.05,10.0,East,8.1,-,0.00,,Mostly Cloudy,80,2013-04-19 02:53:00
11:53 PM,78.1,70.0,76,30.04,10.0,East,17.3,25.3,N/A,,Scattered Clouds,80,2013-04-19 03:53:00